User: anonymous   Login
Location: Unspecified
(0.0000°N, 0.0000°E)
Time: 18:26:08
(UTC+00:00)
Language:

DIAMOND RED - Orbit

View from above orbital plane
View from above orbital plane
View from above satellite
View from above satellite

Ground track
Ground track

The orbit data is extracted from the following two-line orbital elements,

1 42783U 17036U   18048.82757139  .00001124  00000-0  53396-4 0  9992
2 42783  97.4176 110.4419 0013850 130.3556 229.8891 15.21190684 36364
Epoch (UTC): 17 February 2018 19:51:42
Eccentricity: 0.0013850
inclination: 97.4176°
perigee height: 493 km
apogee height: 512 km
right ascension of ascending node: 110.4419°
argument of perigee: 130.3556°
revolutions per day: 15.21190684
mean anomaly at epoch: 229.8891°
orbit number at epoch: 3636

The dashed part of the orbit path shows where the satellite is in the earth's shadow,  

DLR